Zurück zum Katalog

COSMOS 2251 DEB

AktivLEO
NORAD 35022·DEBRIS·🇷🇺 Russia

Gestartet Jun 16, 1993 von Plesetsk Cosmodrome

Loading…

Nächste Überflüge (nächste 24 Stunden)

TLE

VeraltetSource: Space-Track

Epoche: Sep 7, 2026, 11:56 UTC

1 35022U 93036AGK 26250.49769748  .00001080  00000-0  21902-3 0  9998
2 35022  74.0251 167.5861 0047913 296.0334  63.5903 14.61809518630691

Verfolge COSMOS 2251 DEB in Echtzeit mit AllMySat

Download on the App Store